Location: �terpigny
(49.8910°N, 2.9249°E)
Time: 19:09:17
(UTC+00:00)

Gurwin Techsat 1B - Pass Details

Date: 03 July 2022
Orbit: 812 x 813 km, 98.8° (Epoch: 16 August)

Event Time Altitude Azimuth Distance (km) Brightness Sun altitude
Rises 01:13:16 0° 26° (NNE) 3,348 13.7 -15.0°
Reaches altitude 10° 01:16:15 10° 43° (NE) 2,410 12.2 -14.8°
Maximum altitude 01:20:08 20° 90° (E) 1,794 10.6 -14.6°
Drops below altitude 10° 01:23:59 10° 137° (SE) 2,397 10.8 -14.4°
Enters shadow 01:25:45 - 149° (SSE) 2,928 11.2 -14.3°
